Temperature
7 8 8 8 8 8 8 9 9 9 9 9 9 9 10 10 11 11 11 11 11 11 12 12 12 12 12 11 11 11 10 10 10 10 9 9 9 9 9 9 10 10 10
7 7 7 7 7 8 8 8 8 9 9 9 9 9 9 10 10 11 11 11 11 11 11 12 12 12 11 11 11 10 10 10 10 9 9 9 9 9 9 9 9 9 9
6 7 7 7 7 7 7 8 8 8 8 9 9 9 9 9 10 10 11 11 11 11 11 11 12 11 11 11 11 10 10 10 9 10 10 9 9 9 9 9 9 9 9
6 6 6 7 7 7 7 7 8 8 8 8 8 8 8 8 9 10 10 10 10 11 11 11 11 11 11 11 11 11 11 10 10 9 10 10 10 9 9 9 9 9 9
6 6 6 6 6 7 7 7 7 8 8 8 8 8 8 8 9 9 10 10 10 10 10 11 11 11 11 11 11 10 10 10 10 10 10 10 10 10 10 9 9 9 9
6 6 6 6 6 6 7 7 7 7 8 8 8 8 8 8 8 9 9 9 9 10 10 10 11 11 11 11 11 10 10 10 10 10 10 10 11 11 11 10 10 9 9
6 6 6 6 6 6 6 7 7 7 7 7 8 8 8 8 8 9 9 9 9 9 10 10 10 10 11 11 10 10 10 10 10 10 10 10 11 11 11 11 10 9 9
6 6 5 5 5 6 6 6 6 7 7 7 7 8 8 8 8 8 9 9 9 9 10 10 10 10 10 10 10 10 10 10 10 10 10 10 10 11 11 11 11 9 9
5 5 5 5 5 5 5 6 6 6 6 7 7 7 8 8 8 8 9 9 9 9 9 10 10 10 10 10 10 10 10 10 10 10 10 10 10 10 10 11 11 10 9
5 5 5 5 5 5 5 6 6 6 6 6 7 7 7 8 8 8 8 8 9 9 9 9 10 10 10 10 10 10 10 10 10 10 10 10 10 10 10 10 10 10 10
5 5 5 5 5 5 5 5 5 5 6 6 6 7 7 7 8 8 8 8 9 9 9 9 10 10 10 10 9 10 10 9 9 9 9 10 10 10 10 10 10 10 10
4 4 4 4 4 5 5 5 5 5 5 6 6 6 7 7 7 8 8 8 8 9 9 9 9 10 9 10 9 10 10 9 9 9 9 10 10 10 10 10 10 10 10
4 4 4 4 4 4 4 4 5 5 5 5 6 6 6 6 7 7 7 8 8 9 9 9 9 9 9 10 10 10 9 10 10 10 9 10 10 10 10 10 9 9 9
4 4 4 4 4 4 4 4 4 5 5 5 5 5 6 6 6 7 7 8 8 8 9 9 9 9 9 9 10 9 9 9 9 9 9 10 10 10 10 9 9 9 9
3 3 3 3 3 3 4 4 4 4 4 4 5 5 5 5 6 6 7 7 8 8 8 8 9 9 9 9 9 9 9 9 9 9 9 10 10 10 10 9 9 9 9
3 3 3 3 3 3 3 3 4 4 4 4 4 5 5 5 6 6 7 7 7 8 8 8 9 9 9 9 9 9 9 9 9 9 9 9 9 9 9 9 9 9 9
3 2 2 2 2 3 3 3 3 3 4 4 4 4 5 5 6 6 6 7 7 7 8 8 8 9 9 9 9 9 9 9 9 9 9 9 9 9 9 9 9 9 9
2 2 2 2 2 2 2 3 3 3 3 4 4 4 4 5 5 6 6 6 7 7 7 8 8 9 9 9 9 9 9 9 9 9 9 9 9 9 9 9 8 8 8
2 2 2 2 2 2 2 2 3 3 3 3 3 4 4 4 5 5 5 6 6 7 7 7 8 8 9 9 9 9 9 9 9 9 9 9 9 9 9 9 8 8 8
2 1 1 1 2 2 2 2 2 2 3 3 3 3 3 4 4 5 5 6 6 6 7 7 7 8 8 8 9 9 9 8 8 8 9 9 9 9 9 8 8 8 8
1 1 1 1 1 1 2 2 2 2 2 2 3 3 3 4 4 5 5 5 5 6 6 7 7 7 8 8 8 8 8 8 8 8 8 8 8 8 8 8 8 8 7
1 1 1 1 1 1 1 1 2 2 2 2 2 3 3 3 4 4 5 5 5 5 6 6 6 7 7 8 8 8 8 8 8 8 8 8 8 8 8 8 7 7 7
0 0 0 1 1 1 1 1 1 2 2 2 2 2 3 3 4 4 4 4 5 5 5 5 6 6 7 7 8 8 8 8 8 8 8 8 8 7 7 7 7 6 6
-0 0 0 0 1 1 1 1 1 1 1 1 2 2 2 3 3 4 4 4 4 4 5 5 5 6 6 7 7 7 7 8 8 7 7 7 7 7 6 6 6 5 5
-0 -0 -0 0 0 1 1 1 1 1 1 1 1 1 2 2 3 3 4 4 4 4 4 5 5 5 6 7 7 7 7 7 7 7 7 6 6 6 5 5 5 5 5
-1 -1 -0 -0 0 0 0 0 0 0 0 1 1 1 1 2 2 3 3 3 4 4 4 5 5 6 6 6 7 7 7 7 7 7 6 6 6 5 5 5 5 5 4
Wind_Speed
9 8 7 6 5 5 5 5 5 6 4 4 5 6 8 7 7 8 11 13 14 14 12 11 12 12 12 14 14 10 12 9 9 7 5 3 2 4 5 5 6 7 10
10 8 7 6 5 6 7 7 6 6 6 6 5 6 8 7 8 8 11 14 14 14 12 13 13 13 12 15 15 13 8 8 10 9 8 4 1 2 3 4 6 7 7
9 8 7 7 6 6 7 7 7 7 7 7 5 5 5 5 7 8 9 12 14 14 14 14 13 14 14 15 16 15 11 11 9 10 7 6 6 4 2 4 5 6 5
8 8 8 8 7 7 8 7 7 7 7 6 6 8 7 8 8 7 8 11 13 14 14 14 15 15 13 15 17 14 12 14 13 9 4 4 6 6 3 2 4 6 7
8 8 8 8 8 8 8 7 6 6 6 6 7 9 8 7 6 6 9 10 11 12 14 14 15 15 14 15 16 14 15 13 13 10 6 4 4 4 5 5 4 3 4
8 9 9 9 9 8 7 7 6 7 6 7 7 9 9 7 7 8 9 9 9 10 14 15 15 15 14 16 16 15 17 13 12 10 8 7 7 6 4 5 6 5 3
9 10 11 11 11 10 9 9 7 8 7 6 7 8 8 8 9 9 9 10 8 9 13 14 14 14 13 15 14 15 16 16 16 13 9 7 6 6 5 5 4 3 2
10 10 10 11 11 11 10 9 8 8 6 6 6 7 7 7 7 8 8 10 10 10 13 14 14 14 15 15 15 13 13 14 15 14 11 7 7 6 6 5 6 4 1
11 11 11 11 11 10 9 9 8 7 6 5 5 6 7 7 7 8 7 7 9 9 13 14 15 14 15 16 16 13 14 14 13 13 11 9 7 6 6 6 7 7 5
12 12 11 11 10 10 9 9 8 7 6 5 4 5 5 7 7 7 8 8 9 11 13 14 15 15 15 15 15 13 14 15 13 10 12 10 7 7 6 6 5 5 5
12 11 11 11 11 10 9 9 9 7 6 5 5 5 5 5 6 7 9 9 9 12 14 14 15 15 16 16 15 14 16 16 14 12 12 11 9 8 7 7 6 5 4
12 12 11 11 10 10 9 9 8 7 7 6 6 5 5 5 5 6 8 9 10 11 12 14 15 16 16 16 17 17 17 17 16 15 13 12 10 10 9 8 7 6 5
13 12 11 11 10 10 10 10 8 7 6 6 6 6 5 5 6 6 7 8 10 11 11 13 15 16 16 16 16 16 16 16 16 15 14 13 13 12 8 8 8 6 5
12 12 11 11 10 10 10 10 10 7 7 6 6 6 6 6 7 7 7 7 9 10 11 13 14 14 14 15 15 15 15 15 14 13 13 13 14 13 12 9 9 7 6
13 12 11 10 10 11 11 10 10 8 7 7 6 6 6 7 6 6 6 6 7 9 11 11 12 13 12 13 14 15 15 15 14 12 12 12 13 14 13 10 10 10 7
12 12 12 11 11 11 11 11 10 9 7 6 7 7 6 6 5 5 4 5 5 7 9 10 12 13 12 15 17 16 15 15 14 13 12 11 12 14 15 15 14 13 11
12 11 11 11 11 11 10 10 10 9 7 7 7 7 6 5 5 3 3 4 4 5 7 9 11 12 13 17 19 18 15 14 14 14 13 10 10 12 11 12 12 11 11
11 11 10 10 10 10 10 9 9 8 7 7 7 7 7 6 4 3 2 3 4 4 5 7 9 10 12 17 19 18 15 13 14 14 14 13 12 12 13 12 10 7 6
10 10 10 10 10 10 10 9 9 9 7 7 7 6 6 6 5 4 3 2 3 4 4 6 7 10 11 15 19 18 13 12 13 13 13 14 13 17 18 14 12 9 6
10 10 9 9 9 10 8 8 9 8 8 8 7 6 6 6 5 5 3 2 2 4 4 4 6 8 10 13 17 19 12 12 11 10 12 15 16 19 20 15 14 12 9
11 10 9 9 9 9 8 8 9 8 8 7 7 6 5 5 5 4 3 1 1 2 3 3 4 6 9 12 16 19 13 12 12 11 10 10 18 20 20 16 12 14 13
11 10 9 10 9 8 7 9 9 9 8 6 6 6 6 5 5 4 3 1 2 2 3 3 2 3 6 9 13 17 16 14 12 11 10 11 19 19 18 14 15 19 16
10 9 9 10 10 8 7 8 9 8 7 6 6 6 6 5 4 4 3 1 2 2 3 3 3 3 3 6 12 16 17 16 11 10 14 17 20 18 14 16 20 17 11
10 9 9 10 10 9 8 8 9 7 6 6 6 5 5 6 5 4 3 2 3 3 3 4 4 4 4 5 7 10 12 14 12 11 15 19 18 14 14 15 13 8 8
9 8 8 10 11 9 9 8 7 6 6 6 5 5 5 5 4 4 3 3 4 5 5 4 5 6 6 7 10 11 10 10 12 13 10 9 10 9 8 8 8 8 8
9 9 9 9 9 9 9 8 6 5 5 5 5 4 4 4 3 3 3 3 4 4 5 6 6 5 7 9 11 13 15 17 20 15 11 11 10 10 10 10 9 7 8
Wind_Direction
296 300 297 294 297 295 290 276 259 246 235 236 243 232 227 221 213 210 203 193 186 183 185 187 180 180 181 177 169 165 162 161 152 133 119 78 114 167 177 175 174 181 184
318 318 317 306 298 298 295 286 265 254 243 233 240 229 229 223 215 208 203 195 189 185 188 188 185 180 180 178 173 163 162 166 161 151 143 133 141 230 195 186 186 188 183
313 315 312 309 302 293 290 288 275 263 251 238 239 243 241 224 218 211 201 196 192 190 188 191 185 183 181 182 177 173 164 169 171 164 155 157 184 184 216 206 196 188 186
311 312 313 314 301 286 283 279 271 269 258 240 234 225 231 235 224 210 207 198 193 192 189 191 187 183 183 182 182 178 170 169 173 173 167 157 148 153 170 216 207 196 196
307 308 308 306 303 294 285 277 279 276 267 245 235 226 228 235 225 212 207 202 197 195 192 192 188 183 183 182 183 179 173 176 177 172 162 146 135 131 149 178 193 203 212
320 320 321 322 318 310 310 299 294 285 265 246 232 225 220 221 221 215 209 203 198 197 195 193 189 185 183 182 182 181 177 178 177 173 168 163 160 165 154 164 176 192 213
326 329 331 332 330 326 326 320 302 288 274 258 234 225 222 212 216 211 208 203 201 203 197 194 188 186 185 182 180 180 180 181 180 178 177 175 170 158 149 147 155 168 194
325 327 325 325 325 325 323 319 306 290 283 273 255 228 221 217 219 212 209 207 206 206 197 193 188 187 186 183 181 181 182 182 183 182 177 175 175 164 157 153 150 147 172
326 324 321 320 319 320 317 317 310 296 290 283 278 251 230 224 222 215 212 215 206 201 196 191 189 187 187 184 181 184 182 181 186 185 181 179 178 173 164 156 156 155 173
325 324 323 322 318 318 318 323 316 308 294 294 288 281 254 230 220 212 213 220 208 197 192 192 191 187 186 183 183 182 180 181 186 184 182 183 178 174 167 165 164 157 161
319 320 320 320 319 322 325 326 319 316 308 301 296 293 281 259 231 217 214 218 210 199 194 193 190 187 185 184 186 185 181 183 185 186 186 186 176 174 172 169 167 164 152
313 314 315 318 323 324 324 323 319 314 309 305 299 298 285 274 255 235 224 218 211 203 198 192 190 188 186 185 187 187 185 185 187 187 186 185 179 176 174 174 174 172 160
314 316 319 321 322 323 324 322 317 310 310 309 300 300 296 279 273 254 239 224 212 202 194 192 191 190 188 187 188 189 187 188 188 186 186 184 179 180 175 173 174 171 158
314 317 319 321 324 324 323 323 323 315 312 312 305 294 292 282 273 256 242 229 209 195 195 195 191 190 190 189 187 187 187 186 185 185 186 183 184 183 176 176 174 164 154
318 320 320 320 322 323 323 325 323 321 316 314 312 296 289 287 279 264 242 216 202 199 196 193 191 191 192 190 186 186 184 182 181 182 185 184 181 180 177 176 174 167 162
316 320 320 322 321 319 320 323 322 320 317 310 310 309 302 295 288 272 233 206 207 203 197 194 193 194 198 188 183 184 182 181 180 182 181 180 177 175 172 168 167 166 166
313 317 317 314 312 313 315 317 314 314 315 311 316 318 315 313 304 281 232 207 205 207 201 198 196 198 195 185 181 181 180 180 182 181 178 177 177 169 168 159 152 156 159
307 308 307 306 307 308 313 315 319 320 316 315 319 323 327 326 322 308 256 216 206 209 203 198 200 196 193 183 179 176 179 179 181 180 177 174 172 171 161 152 148 145 145
293 295 295 296 301 304 311 317 320 320 321 320 319 320 321 321 322 314 299 244 215 215 211 203 198 192 191 182 178 173 178 179 180 178 174 172 173 167 156 153 150 141 129
296 296 296 297 301 302 310 315 312 312 312 311 307 307 312 312 310 306 287 274 232 222 218 215 201 191 188 181 179 175 179 178 176 171 172 172 170 165 160 161 158 157 151
297 299 298 297 295 299 308 307 304 301 299 301 304 306 309 304 298 301 293 256 239 223 217 211 201 192 188 178 177 177 181 177 172 171 172 173 164 162 163 162 164 159 147
302 304 302 299 297 298 300 300 299 297 298 299 303 305 305 302 306 306 300 243 197 217 218 200 189 192 186 181 178 176 175 170 172 172 169 165 159 159 159 158 149 142 137
297 298 297 297 297 295 290 292 295 300 302 300 300 302 307 305 301 295 283 235 200 203 222 202 193 194 187 179 173 171 167 161 163 160 155 152 153 152 153 148 143 142 143
295 297 299 299 298 297 291 284 290 295 295 296 298 300 306 307 304 294 267 225 218 214 215 208 199 193 189 180 172 169 162 154 150 144 142 140 139 139 140 142 142 144 150
294 294 294 293 293 296 295 292 291 293 292 295 295 299 297 296 302 305 290 251 244 229 221 216 204 192 196 189 172 166 163 161 153 141 135 135 141 142 140 139 141 142 142
295 296 296 295 294 295 294 297 297 289 290 295 295 293 293 291 290 302 317 302 252 263 249 236 223 208 192 175 163 160 154 150 146 141 146 149 151 154 154 153 150 149 150
Height
1426 1424 1422 1420 1418 1417 1415 1414 1414 1414 1415 1415 1415 1415 1417 1417 1419 1422 1425 1428 1432 1436 1440 1444 1448 1452 1456 1460 1466 1472 1478 1483 1488 1493 1498 1503 1506 1509 1511 1513 1514 1516 1518
1422 1420 1418 1417 1415 1412 1411 1410 1408 1407 1408 1409 1409 1410 1411 1412 1413 1415 1418 1422 1425 1430 1434 1438 1442 1446 1451 1456 1460 1466 1472 1477 1482 1486 1492 1498 1504 1505 1508 1510 1512 1514 1515
1421 1417 1415 1412 1410 1408 1406 1404 1403 1402 1403 1403 1404 1405 1406 1405 1407 1409 1411 1414 1419 1423 1428 1432 1436 1440 1445 1449 1453 1459 1464 1470 1476 1481 1484 1490 1494 1500 1504 1506 1508 1510 1512
1419 1416 1412 1409 1406 1404 1401 1399 1398 1397 1397 1396 1397 1397 1397 1397 1398 1401 1405 1408 1412 1417 1421 1425 1430 1434 1439 1444 1448 1454 1459 1464 1469 1475 1479 1483 1485 1491 1497 1501 1504 1506 1508
1418 1414 1410 1406 1402 1399 1397 1394 1392 1391 1390 1390 1390 1391 1391 1392 1394 1396 1399 1401 1405 1410 1414 1419 1423 1427 1433 1438 1444 1449 1454 1459 1463 1467 1473 1478 1481 1485 1488 1493 1498 1502 1504
1416 1412 1408 1403 1399 1395 1392 1389 1387 1386 1385 1385 1385 1385 1385 1387 1388 1390 1393 1395 1399 1403 1408 1413 1417 1421 1426 1432 1437 1443 1448 1453 1459 1463 1468 1472 1475 1480 1484 1487 1491 1496 1499
1414 1410 1405 1400 1396 1391 1387 1384 1383 1381 1379 1379 1379 1380 1380 1381 1383 1385 1387 1389 1392 1397 1401 1406 1410 1415 1421 1426 1432 1438 1442 1448 1454 1459 1464 1469 1473 1477 1481 1484 1488 1492 1496
1413 1409 1404 1399 1394 1390 1386 1383 1380 1377 1376 1374 1374 1374 1375 1377 1379 1380 1381 1383 1387 1390 1395 1400 1404 1410 1416 1422 1427 1433 1437 1443 1449 1455 1460 1465 1470 1474 1478 1481 1484 1488 1492
1412 1408 1403 1398 1394 1389 1385 1380 1376 1374 1372 1371 1370 1370 1371 1372 1374 1375 1377 1379 1381 1385 1390 1395 1399 1405 1411 1417 1422 1428 1433 1439 1445 1450 1456 1461 1466 1471 1475 1478 1481 1484 1487
1410 1405 1401 1396 1391 1386 1382 1378 1374 1371 1369 1367 1367 1366 1366 1367 1369 1370 1372 1374 1376 1380 1385 1389 1394 1400 1406 1412 1418 1423 1428 1434 1440 1446 1452 1457 1462 1467 1471 1474 1478 1481 1483
1408 1404 1399 1393 1388 1383 1379 1374 1371 1369 1367 1365 1363 1362 1362 1363 1365 1365 1368 1369 1372 1376 1379 1384 1389 1394 1400 1407 1414 1419 1424 1429 1436 1442 1447 1452 1457 1462 1466 1470 1473 1477 1480
1406 1401 1396 1391 1386 1381 1377 1373 1370 1367 1364 1362 1360 1359 1359 1359 1359 1360 1362 1364 1367 1371 1375 1379 1384 1389 1395 1401 1408 1413 1419 1425 1431 1436 1442 1447 1453 1457 1462 1466 1469 1473 1476
1403 1398 1393 1388 1383 1379 1375 1371 1368 1365 1362 1360 1358 1356 1355 1355 1354 1355 1358 1360 1362 1365 1369 1374 1379 1385 1390 1396 1402 1408 1414 1420 1426 1431 1436 1442 1447 1452 1456 1461 1465 1468 1472
1400 1395 1390 1385 1381 1377 1373 1369 1365 1362 1360 1357 1355 1353 1352 1352 1351 1351 1353 1354 1357 1360 1365 1369 1375 1380 1386 1391 1398 1404 1410 1416 1421 1426 1432 1437 1442 1447 1451 1456 1460 1464 1467
1397 1392 1387 1383 1378 1374 1371 1366 1363 1359 1357 1355 1352 1350 1349 1349 1348 1348 1349 1350 1353 1357 1361 1365 1370 1376 1381 1387 1393 1399 1405 1410 1416 1421 1427 1432 1438 1443 1447 1452 1456 1459 1462
1395 1391 1386 1381 1377 1373 1369 1365 1361 1358 1355 1353 1351 1349 1347 1345 1345 1345 1346 1347 1350 1353 1357 1361 1365 1371 1377 1382 1388 1394 1399 1405 1411 1416 1422 1428 1433 1438 1443 1448 1451 1455 1458
1393 1389 1384 1380 1376 1371 1368 1363 1359 1356 1353 1351 1349 1347 1345 1343 1342 1342 1344 1345 1347 1349 1353 1357 1361 1366 1371 1377 1382 1389 1395 1400 1406 1411 1417 1422 1428 1433 1438 1443 1447 1450 1454
1390 1386 1382 1378 1373 1369 1365 1362 1358 1354 1351 1348 1347 1345 1342 1341 1341 1341 1342 1343 1345 1346 1349 1353 1356 1361 1366 1371 1378 1384 1390 1396 1401 1406 1412 1417 1423 1428 1433 1438 1442 1445 1449
1387 1383 1378 1374 1370 1366 1363 1359 1355 1352 1350 1347 1345 1343 1342 1340 1339 1339 1340 1340 1342 1344 1346 1349 1352 1356 1361 1367 1373 1380 1385 1391 1396 1402 1407 1413 1418 1423 1428 1433 1437 1441 1444
1382 1378 1374 1370 1366 1363 1360 1357 1353 1351 1348 1346 1344 1343 1341 1339 1338 1338 1338 1338 1339 1341 1343 1345 1348 1352 1356 1362 1368 1374 1380 1385 1391 1397 1403 1408 1413 1419 1423 1428 1432 1436 1439
1377 1373 1369 1365 1362 1359 1356 1353 1350 1348 1346 1344 1343 1341 1340 1338 1337 1336 1336 1337 1337 1339 1340 1342 1345 1349 1353 1358 1364 1369 1375 1380 1386 1391 1397 1403 1409 1414 1419 1424 1428 1432 1436
1372 1368 1364 1361 1358 1355 1353 1349 1346 1345 1343 1341 1339 1338 1337 1336 1335 1334 1334 1335 1336 1336 1338 1339 1342 1346 1350 1355 1359 1365 1371 1377 1382 1387 1393 1399 1405 1410 1415 1420 1424 1429 1432
1368 1364 1360 1356 1353 1351 1349 1346 1343 1341 1339 1338 1336 1334 1333 1333 1332 1331 1331 1332 1333 1335 1336 1338 1340 1344 1348 1352 1357 1362 1367 1373 1379 1384 1390 1395 1401 1406 1411 1416 1421 1425 1428
1363 1360 1356 1352 1349 1346 1344 1342 1340 1338 1336 1333 1332 1331 1330 1329 1329 1328 1329 1329 1331 1332 1334 1335 1338 1341 1344 1349 1353 1358 1364 1369 1375 1381 1387 1392 1397 1403 1408 1412 1417 1421 1425
1359 1356 1352 1348 1345 1342 1340 1338 1336 1334 1332 1330 1330 1328 1328 1327 1326 1326 1327 1328 1329 1330 1331 1333 1335 1338 1341 1345 1350 1354 1360 1365 1370 1376 1382 1387 1393 1398 1403 1408 1413 1417 1421
1354 1351 1347 1344 1341 1338 1335 1333 1331 1330 1328 1327 1326 1325 1324 1324 1324 1323 1324 1325 1326 1327 1329 1330 1332 1335 1339 1343 1348 1353 1358 1363 1368 1373 1378 1383 1389 1394 1399 1404 1409 1413 1418